logo tempoitalia

Diretta Meteo Hereford, Stati Uniti (USA)lunedì 31 agosto ore 01:30

Mappa
Sereno 25 °C Sereno 24 Ore: T.min 24 T.max 39
Ponente Sud/Sud-Ovest Km/h 14.8 Punto di rugiada: 10 °C Umidità: 38% Visibilità: 10 Km
Il sole sorge alle: 07:21 Il sole tramonta alle: 20:17
31 Agosto 2026 01:30 tempo osservato: Sereno Sereno 25 38 1017 vento: Nord S/SO 14.8
31 Agosto 2026 01:10 tempo osservato: Sereno Sereno 26 34 1018 vento: Nord S/SO 11.1
31 Agosto 2026 00:50 tempo osservato: Sereno Sereno 27 32 1017 vento: Nord S/SO 16.7
31 Agosto 2026 00:30 tempo osservato: Sereno Sereno 27 32 1017 vento: Nord S/SO 18.5
31 Agosto 2026 00:10 tempo osservato: Sereno Sereno 28 30 1017 vento: Nord S/SO 16.7
30 Agosto 2026 23:50 tempo osservato: Sereno Sereno 28 30 1017 vento: Nord S/SO 18.5
30 Agosto 2026 23:30 tempo osservato: Sereno Sereno 28 30 1017 vento: Nord S/SO 18.5
30 Agosto 2026 23:10 tempo osservato: Sereno Sereno 29 28 1017 vento: Nord S 18.5
30 Agosto 2026 22:50 tempo osservato: Sereno Sereno 29 30 1017 vento: Nord S 18.5
30 Agosto 2026 22:30 tempo osservato: Sereno Sereno 29 30 1017 vento: Nord S 16.7
30 Agosto 2026 22:10 tempo osservato: Sereno Sereno 30 28 1017 vento: Nord S 20.3
30 Agosto 2026 21:50 tempo osservato: Sereno Sereno 30 28 1016 vento: Nord S 16.7
30 Agosto 2026 21:30 tempo osservato: Sereno Sereno 30 28 1016 vento: Nord S 18.5
30 Agosto 2026 21:10 tempo osservato: Sereno Sereno 31 27 1016 vento: Nord S 22.2
30 Agosto 2026 20:50 tempo osservato: Sereno Sereno 32 25 1016 vento: Nord S 18.5
30 Agosto 2026 20:30 tempo osservato: Sereno Sereno 32 24 1015 vento: Nord S 20.3
30 Agosto 2026 20:10 tempo osservato: Sereno Sereno 33 22 1015 vento: Nord S 24
30 Agosto 2026 19:50 tempo osservato: Sereno Sereno 34 21 1015 vento: Nord S 25.9
30 Agosto 2026 19:30 tempo osservato: Sereno Sereno 35 19 1015 vento: Nord S 22.2
30 Agosto 2026 19:10 tempo osservato: Sereno Sereno 36 19 1015 vento: Nord S 27.8
30 Agosto 2026 18:50 tempo osservato: Sereno Sereno 37 18 1015 vento: Nord S 25.9
30 Agosto 2026 18:30 tempo osservato: Sereno Sereno 37 18 1015 vento: Nord S 27.8
30 Agosto 2026 18:10 tempo osservato: Sereno Sereno 38 17 1015 vento: Nord S 29.6
30 Agosto 2026 17:50 tempo osservato: Sereno Sereno 38 17 1015 vento: Nord S/SO 29.6
30 Agosto 2026 17:30 tempo osservato: Sereno Sereno 38 17 1015 vento: Nord S 25.9
30 Agosto 2026 17:10 tempo osservato: Sereno Sereno 38 17 1015 vento: Nord S 27.8
30 Agosto 2026 16:50 tempo osservato: Sereno Sereno 39 16 1015 vento: Nord S/SO 24
30 Agosto 2026 16:30 tempo osservato: Sereno Sereno 38 18 1015 vento: Nord S/SO 20.3
30 Agosto 2026 16:10 tempo osservato: Sereno Sereno 38 18 1015 vento: Nord SO 18.5
30 Agosto 2026 15:50 tempo osservato: Sereno Sereno 39 17 1016 vento: Nord S/SO 18.5
30 Agosto 2026 15:30 tempo osservato: Sereno Sereno 38 18 1016 vento: Nord SO 20.3
30 Agosto 2026 15:10 tempo osservato: Sereno Sereno 38 18 1016 vento: Nord S/SO 22.2
30 Agosto 2026 14:50 tempo osservato: Sereno Sereno 38 19 1016 vento: Nord S/SO 27.8
30 Agosto 2026 14:30 tempo osservato: Sereno Sereno 38 19 1017 vento: Nord SO 29.6
30 Agosto 2026 14:10 tempo osservato: Sereno Sereno 37 20 1017 vento: Nord SO 29.6
30 Agosto 2026 13:50 tempo osservato: Sereno Sereno 37 20 1017 vento: Nord SO 24
30 Agosto 2026 13:30 tempo osservato: Sereno Sereno 37 20 1017 vento: Nord SO 18.5
30 Agosto 2026 13:10 tempo osservato: Sereno Sereno 36 23 1017 vento: Nord S/SO 31.5
30 Agosto 2026 12:50 tempo osservato: Sereno Sereno 36 23 1018 vento: Nord SO 31.5
30 Agosto 2026 12:30 tempo osservato: Sereno Sereno 35 24 1018 vento: Nord SO 31.5
30 Agosto 2026 12:10 tempo osservato: Sereno Sereno 35 26 1018 vento: Nord SO 25.9
30 Agosto 2026 11:50 tempo osservato: Sereno Sereno 34 28 1018 vento: Nord SO 29.6
30 Agosto 2026 11:30 tempo osservato: Sereno Sereno 33 29 1019 vento: Nord SO 33.3
30 Agosto 2026 11:10 tempo osservato: Sereno Sereno 33 31 1019 vento: Nord S/SO 27.8
30 Agosto 2026 10:50 tempo osservato: Sereno Sereno 32 33 1018 vento: Nord SO 25.9
30 Agosto 2026 10:30 tempo osservato: Sereno Sereno 32 33 1018 vento: Nord O/SO 27.8
30 Agosto 2026 10:10 tempo osservato: Sereno Sereno 31 37 1019 vento: Nord SO 27.8
30 Agosto 2026 09:50 tempo osservato: Sereno Sereno 30 40 1019 vento: Nord SO 29.6
30 Agosto 2026 09:30 tempo osservato: Sereno Sereno 29 42 1019 vento: Nord SO 24
30 Agosto 2026 09:10 tempo osservato: Sereno Sereno 28 45 1019 vento: Nord SO 29.6
30 Agosto 2026 08:50 tempo osservato: Sereno Sereno 27 47 1019 vento: Nord SO 25.9
30 Agosto 2026 08:30 tempo osservato: Sereno Sereno 26 50 1019 vento: Nord SO 22.2
30 Agosto 2026 08:10 tempo osservato: Sereno Sereno 25 53 1019 vento: Nord SO 16.7
30 Agosto 2026 07:50 tempo osservato: Sereno Sereno 24 53 1019 vento: Nord SO 18.5
30 Agosto 2026 07:30 tempo osservato: Sereno Sereno 24 53 1018 vento: Nord SO 14.8
30 Agosto 2026 07:10 tempo osservato: Sereno Sereno 24 53 1018 vento: Nord SO 13
30 Agosto 2026 06:50 tempo osservato: Sereno Sereno 25 50 1018 vento: Nord SO 14.8
30 Agosto 2026 06:30 tempo osservato: Sereno Sereno 25 50 1018 vento: Nord O/SO 18.5
30 Agosto 2026 06:10 tempo osservato: Sereno Sereno 25 47 1018 vento: Nord SO 22.2
30 Agosto 2026 05:50 tempo osservato: Sereno Sereno 26 44 1018 vento: Nord SO 18.5
30 Agosto 2026 05:30 tempo osservato: Sereno Sereno 26 44 1018 vento: Nord SO 24
30 Agosto 2026 05:10 tempo osservato: Sereno Sereno 26 44 1018 vento: Nord SO 20.3
30 Agosto 2026 04:50 tempo osservato: Sereno Sereno 26 41 1018 vento: Nord SO 22.2
30 Agosto 2026 04:30 tempo osservato: Sereno Sereno 26 41 1018 vento: Nord SO 18.5
30 Agosto 2026 04:10 tempo osservato: Sereno Sereno 26 41 1017 vento: Nord SO 16.7
30 Agosto 2026 03:50 tempo osservato: Sereno Sereno 26 41 1017 vento: Nord SO 16.7
30 Agosto 2026 03:30 tempo osservato: Sereno Sereno 26 39 1017 vento: Nord SO 13
30 Agosto 2026 03:10 tempo osservato: Sereno Sereno 25 41 1017 vento: Nord SO 11.1
30 Agosto 2026 02:50 tempo osservato: Sereno Sereno 26 39 1018 vento: Nord SO 13
30 Agosto 2026 02:30 tempo osservato: Sereno Sereno 27 36 1018 vento: Nord SO 13
30 Agosto 2026 02:10 tempo osservato: Sereno Sereno 27 36 1018 vento: Nord S/SO 11.1
30 Agosto 2026 01:50 tempo osservato: Sereno Sereno 27 34 1018 vento: Nord SO 18.5